Погода в Журавлево

Россия / Санкт-Петербург и Ленинградская область     59°21′01″N   34°43′24″E
темп.,
°C
ветер,
м/с
пор.,
м/с
влажн.,
%
обл.,
%
осадки,
мм/ч
давл.,
гПа
погр.,
м
3 марта, ср
ср300:00−6зсз412900 0.0 1014360
03:00−6зсз310959 0.0 1015340
06:00−2зсз4109392 0.1 1013865
09:00−2зсз5119096 0.2 1013980
12:00−1з51088100 0.1 1011923
15:00−1з5108699 0.1 1009806
18:00−1з51288100 0.1 10061105
21:00−1з61394100 0.6 10031066
4 марта, чт
чт400:00−2зсз4119499 0.4 1000847
03:00−5зсз5138868 0.6 1001686
06:00−7сз4119369 0.0 1001439
09:00−7сз389383 0.0 1001429
12:00−4сз368795 0.0 1001637
15:00−4сз348497 0.1 1002711
18:00−6сз2294100 0.1 100262
21:00−8с229599 0.2 100329
5 марта, пт
пт500:00−9сз119597 0.1 100421
03:00−8зсз129798 0.3 100552
06:00−8сз2596100 0.4 1006202
09:00−8сз379399 0.6 1007376
12:00−7сз368698 0.1 1008654
15:00−6сз368399 0.1 1010865
18:00−9ссз269198 0.1 1011192
21:00−13ссз229369 0.1 101421
6 марта, сб
сб600:00−14зсз129532 0.0 101520
03:00−14з239642 0.0 101564
06:00−15з269738 0.0 1015151
09:00−11з389455 0.0 1014363
12:00−7з368397 0.0 1013740
15:00−5юз477594 0.1 10101186
18:00−7юз41184100 0.1 10061016
21:00−6ююз61492100 0.5 10001234
7 марта, вс
вс700:00−5ююз71592100 1.1 9951115
03:00−4юз61493100 2.4 989976
06:00−3ююз61395100 0.9 9841022
09:00−8зсз81690100 3.5 9811030
12:00−7з6137080 0.3 9821889
15:00−8зюз599090 1.3 982935
18:00−7ссз4794100 1.3 983826
21:00−10ссз4109299 1.9 985492